Time,TemperatureF,DewpointF,PressureIn,WindDirection,WindDirectionDegrees,WindSpeedMPH,WindSpeedGustMPH,Humidity,HourlyPrecipIn,Conditions,Clouds,dailyrainin,SoftwareType,DateUTC
2013-08-21 00:02:00,74.1,66.4,29.97,NE,56,2.0,3.0,77,0.00,,,0.00,meteohub,2013-08-21 10:02:00,
2013-08-21 00:07:00,74.1,66.4,29.97,ENE,60,1.0,3.0,77,0.00,,,0.00,meteohub,2013-08-21 10:07:00,
2013-08-21 00:12:00,74.1,66.4,29.96,ENE,77,1.0,3.0,77,0.00,,,0.00,meteohub,2013-08-21 10:12:00,
2013-08-21 00:17:00,74.3,66.6,29.96,ENE,59,2.0,3.0,77,0.00,,,0.00,meteohub,2013-08-21 10:17:00,
2013-08-21 00:22:00,74.3,66.6,29.96,ENE,73,1.0,3.0,77,0.00,,,0.00,meteohub,2013-08-21 10:22:00,
2013-08-21 00:27:00,74.3,66.2,29.96,East,81,1.0,2.0,76,0.00,,,0.00,meteohub,2013-08-21 10:27:00,
2013-08-21 00:32:00,74.5,66.4,29.96,ENE,73,1.0,3.0,76,0.00,,,0.00,meteohub,2013-08-21 10:32:00,
2013-08-21 00:37:00,74.5,66.4,29.96,East,96,1.0,3.0,76,0.00,,,0.00,meteohub,2013-08-21 10:37:00,
2013-08-21 00:42:00,74.5,66.4,29.96,East,82,1.0,3.0,76,0.00,,,0.00,meteohub,2013-08-21 10:42:00,
2013-08-21 00:47:00,74.3,66.2,29.96,ENE,67,3.0,3.0,76,0.00,,,0.00,meteohub,2013-08-21 10:47:00,
2013-08-21 00:52:00,74.3,66.2,29.96,ESE,105,0.0,3.0,76,0.00,,,0.00,meteohub,2013-08-21 10:52:00,
2013-08-21 00:57:00,74.3,66.2,29.96,ENE,65,2.0,3.0,76,0.00,,,0.00,meteohub,2013-08-21 10:57:00,
2013-08-21 01:02:00,74.1,66.0,29.96,East,86,1.0,3.0,76,0.00,,,0.00,meteohub,2013-08-21 11:02:00,
2013-08-21 01:07:00,74.1,66.4,29.96,ESE,103,1.0,3.0,77,0.00,,,0.00,meteohub,2013-08-21 11:07:00,
2013-08-21 01:12:00,73.9,66.2,29.96,ENE,78,2.0,3.0,77,0.00,,,0.00,meteohub,2013-08-21 11:12:00,
2013-08-21 01:17:00,73.9,66.2,29.95,East,98,2.0,3.0,77,0.00,,,0.00,meteohub,2013-08-21 11:17:00,
2013-08-21 01:22:00,73.8,66.0,29.95,East,82,2.0,3.0,77,0.00,,,0.00,meteohub,2013-08-21 11:22:00,
2013-08-21 01:27:00,73.8,66.0,29.95,ESE,103,1.0,3.0,77,0.00,,,0.00,meteohub,2013-08-21 11:27:00,
2013-08-21 01:32:00,73.8,66.0,29.95,East,94,2.0,3.0,77,0.00,,,0.00,meteohub,2013-08-21 11:32:00,
2013-08-21 01:37:00,73.8,66.4,29.95,ESE,103,2.0,3.0,78,0.00,,,0.00,meteohub,2013-08-21 11:37:00,
2013-08-21 01:42:00,73.8,66.4,29.94,East,98,2.0,4.0,78,0.00,,,0.00,meteohub,2013-08-21 11:42:00,
2013-08-21 01:47:00,73.8,66.4,29.94,East,91,1.0,4.0,78,0.00,,,0.00,meteohub,2013-08-21 11:47:00,
2013-08-21 01:52:00,73.8,66.4,29.94,East,83,1.0,4.0,78,0.00,,,0.00,meteohub,2013-08-21 11:52:00,
2013-08-21 01:57:00,73.8,66.9,29.94,East,100,2.0,3.0,79,0.00,,,0.00,meteohub,2013-08-21 11:57:00,
2013-08-21 02:02:00,73.8,66.9,29.94,East,88,2.0,3.0,79,0.00,,,0.00,meteohub,2013-08-21 12:02:00,
2013-08-21 02:07:00,73.9,67.1,29.94,East,91,1.0,4.0,79,0.00,,,0.00,meteohub,2013-08-21 12:07:00,
2013-08-21 02:12:00,73.9,67.1,29.94,ESE,108,2.0,4.0,79,0.00,,,0.00,meteohub,2013-08-21 12:12:00,
2013-08-21 02:17:00,73.8,66.9,29.94,East,92,3.0,4.0,79,0.00,,,0.00,meteohub,2013-08-21 12:17:00,
2013-08-21 02:22:00,73.8,66.4,29.94,East,89,2.0,3.0,78,0.00,,,0.00,meteohub,2013-08-21 12:22:00,
2013-08-21 02:27:00,73.8,66.4,29.94,East,87,2.0,4.0,78,0.00,,,0.00,meteohub,2013-08-21 12:27:00,
2013-08-21 02:32:00,73.6,66.7,29.94,East,101,1.0,4.0,79,0.00,,,0.00,meteohub,2013-08-21 12:32:00,
2013-08-21 02:37:00,73.4,66.6,29.94,East,101,0.0,4.0,79,0.00,,,0.00,meteohub,2013-08-21 12:37:00,
2013-08-21 02:42:00,73.2,66.7,29.93,ESE,102,1.0,3.0,80,0.00,,,0.00,meteohub,2013-08-21 12:42:00,
2013-08-21 02:47:00,73.2,66.7,29.94,East,96,2.0,2.0,80,0.00,,,0.00,meteohub,2013-08-21 12:47:00,
2013-08-21 02:52:00,73.2,67.1,29.94,East,84,0.0,3.0,81,0.00,,,0.00,meteohub,2013-08-21 12:52:00,
2013-08-21 02:57:00,73.2,67.1,29.94,East,95,1.0,3.0,81,0.00,,,0.00,meteohub,2013-08-21 12:57:00,
2013-08-21 03:02:00,73.4,67.3,29.94,East,86,0.0,2.0,81,0.00,,,0.00,meteohub,2013-08-21 13:02:00,
2013-08-21 03:07:00,73.6,67.5,29.93,ENE,75,1.0,2.0,81,0.00,,,0.00,meteohub,2013-08-21 13:07:00,
2013-08-21 03:12:00,73.8,67.6,29.93,ENE,77,1.0,2.0,81,0.00,,,0.00,meteohub,2013-08-21 13:12:00,
2013-08-21 03:17:00,73.8,67.6,29.94,ENE,78,1.0,2.0,81,0.00,,,0.00,meteohub,2013-08-21 13:17:00,
2013-08-21 03:22:00,73.8,67.6,29.94,ENE,75,0.0,2.0,81,0.00,,,0.00,meteohub,2013-08-21 13:22:00,
2013-08-21 03:27:00,73.8,67.6,29.93,ENE,75,0.0,2.0,81,0.00,,,0.00,meteohub,2013-08-21 13:27:00,
2013-08-21 03:32:00,73.8,67.6,29.93,ENE,77,2.0,2.0,81,0.00,,,0.00,meteohub,2013-08-21 13:32:00,
2013-08-21 03:37:00,73.8,67.6,29.93,East,98,2.0,2.0,81,0.00,,,0.00,meteohub,2013-08-21 13:37:00,
2013-08-21 03:42:00,73.8,67.6,29.93,East,98,1.0,2.0,81,0.00,,,0.00,meteohub,2013-08-21 13:42:00,
2013-08-21 03:47:00,73.8,67.6,29.93,East,96,1.0,2.0,81,0.00,,,0.00,meteohub,2013-08-21 13:47:00,
2013-08-21 03:52:00,73.6,67.5,29.93,East,93,1.0,2.0,81,0.00,,,0.00,meteohub,2013-08-21 13:52:00,
2013-08-21 03:57:00,73.4,67.3,29.93,East,93,0.0,2.0,81,0.00,,,0.00,meteohub,2013-08-21 13:57:00,
2013-08-21 04:02:00,73.2,67.5,29.93,East,93,1.0,2.0,82,0.00,,,0.00,meteohub,2013-08-21 14:02:00,
2013-08-21 04:07:00,73.2,67.5,29.93,East,94,0.0,1.0,82,0.00,,,0.00,meteohub,2013-08-21 14:07:00,
2013-08-21 04:12:00,73.2,67.5,29.93,East,93,1.0,1.0,82,0.00,,,0.00,meteohub,2013-08-21 14:12:00,
2013-08-21 04:17:00,73.2,67.5,29.93,East,93,1.0,1.0,82,0.00,,,0.00,meteohub,2013-08-21 14:17:00,
2013-08-21 04:22:00,72.9,67.1,29.93,East,93,1.0,1.0,82,0.00,,,0.00,meteohub,2013-08-21 14:22:00,
2013-08-21 04:27:00,72.7,66.9,29.93,East,82,1.0,1.0,82,0.00,,,0.00,meteohub,2013-08-21 14:27:00,
2013-08-21 04:32:00,72.3,66.9,29.93,East,80,1.0,2.0,83,0.00,,,0.00,meteohub,2013-08-21 14:32:00,
2013-08-21 04:37:00,72.0,66.6,29.93,East,89,2.0,2.0,83,0.00,,,0.00,meteohub,2013-08-21 14:37:00,
2013-08-21 04:42:00,72.0,66.9,29.93,ESE,105,2.0,3.0,84,0.00,,,0.00,meteohub,2013-08-21 14:42:00,
2013-08-21 04:47:00,72.0,66.6,29.94,East,90,2.0,3.0,83,0.00,,,0.00,meteohub,2013-08-21 14:47:00,
2013-08-21 04:52:00,72.1,66.7,29.93,East,87,1.0,3.0,83,0.00,,,0.00,meteohub,2013-08-21 14:52:00,
2013-08-21 04:57:00,72.1,66.4,29.94,East,83,2.0,3.0,82,0.00,,,0.00,meteohub,2013-08-21 14:57:00,
2013-08-21 05:02:00,72.3,66.6,29.94,ENE,78,2.0,2.0,82,0.00,,,0.00,meteohub,2013-08-21 15:02:00,
2013-08-21 05:07:00,72.3,66.2,29.94,East,82,1.0,2.0,81,0.00,,,0.00,meteohub,2013-08-21 15:07:00,
2013-08-21 05:12:00,72.3,66.2,29.94,ENE,77,2.0,2.0,81,0.00,,,0.00,meteohub,2013-08-21 15:12:00,
2013-08-21 05:17:00,72.3,66.2,29.94,ENE,68,2.0,2.0,81,0.00,,,0.00,meteohub,2013-08-21 15:17:00,
2013-08-21 05:22:00,72.3,66.6,29.94,ENE,69,1.0,2.0,82,0.00,,,0.00,meteohub,2013-08-21 15:22:00,
2013-08-21 05:27:00,72.1,66.4,29.94,East,82,2.0,2.0,82,0.00,,,0.00,meteohub,2013-08-21 15:27:00,
2013-08-21 05:32:00,72.1,66.4,29.94,ENE,72,2.0,3.0,82,0.00,,,0.00,meteohub,2013-08-21 15:32:00,
2013-08-21 05:37:00,72.0,66.2,29.94,ENE,72,2.0,3.0,82,0.00,,,0.00,meteohub,2013-08-21 15:37:00,
2013-08-21 05:42:00,72.0,66.2,29.94,ENE,77,2.0,3.0,82,0.00,,,0.00,meteohub,2013-08-21 15:42:00,
2013-08-21 05:47:00,72.0,66.6,29.94,East,79,2.0,2.0,83,0.00,,,0.00,meteohub,2013-08-21 15:47:00,
2013-08-21 05:52:00,72.0,66.2,29.94,East,92,2.0,2.0,82,0.00,,,0.00,meteohub,2013-08-21 15:52:00,
2013-08-21 05:57:00,72.1,66.0,29.94,East,88,2.0,3.0,81,0.00,,,0.00,meteohub,2013-08-21 15:57:00,
2013-08-21 06:02:00,72.3,66.2,29.94,East,84,2.0,3.0,81,0.00,,,0.00,meteohub,2013-08-21 16:02:00,
2013-08-21 06:07:00,72.5,66.0,29.94,ENE,77,2.0,3.0,80,0.00,,,0.00,meteohub,2013-08-21 16:07:00,
2013-08-21 06:12:00,72.7,66.2,29.94,East,89,2.0,3.0,80,0.00,,,0.00,meteohub,2013-08-21 16:12:00,
2013-08-21 06:17:00,72.7,66.2,29.94,ENE,77,1.0,3.0,80,0.00,,,0.00,meteohub,2013-08-21 16:17:00,
2013-08-21 06:22:00,72.5,66.0,29.94,East,90,2.0,3.0,80,0.00,,,0.00,meteohub,2013-08-21 16:22:00,
2013-08-21 06:27:00,72.5,66.0,29.94,East,88,1.0,3.0,80,0.00,,,0.00,meteohub,2013-08-21 16:27:00,
2013-08-21 06:32:00,72.7,65.8,29.95,East,88,1.0,2.0,79,0.00,,,0.00,meteohub,2013-08-21 16:32:00,
2013-08-21 06:37:00,72.7,65.8,29.95,East,86,1.0,2.0,79,0.00,,,0.00,meteohub,2013-08-21 16:37:00,
2013-08-21 06:42:00,72.7,66.2,29.95,ENE,77,1.0,2.0,80,0.00,,,0.00,meteohub,2013-08-21 16:42:00,
2013-08-21 06:47:00,72.7,65.8,29.95,East,79,1.0,2.0,79,0.00,,,0.00,meteohub,2013-08-21 16:47:00,
2013-08-21 06:52:00,72.9,66.4,29.95,ENE,77,0.0,2.0,80,0.00,,,0.00,meteohub,2013-08-21 16:52:00,
2013-08-21 06:57:00,73.6,66.7,29.95,ENE,77,1.0,2.0,79,0.00,,,0.00,meteohub,2013-08-21 16:57:00,
2013-08-21 07:02:00,74.1,66.7,29.96,ENE,78,1.0,2.0,78,0.00,,,0.00,meteohub,2013-08-21 17:02:00,
2013-08-21 07:07:00,74.8,67.1,29.96,East,79,0.0,1.0,77,0.00,,,0.00,meteohub,2013-08-21 17:07:00,
2013-08-21 07:12:00,75.6,67.5,29.96,ENE,78,1.0,1.0,76,0.00,,,0.00,meteohub,2013-08-21 17:12:00,
2013-08-21 07:17:00,75.9,67.5,29.96,ENE,78,0.0,1.0,75,0.00,,,0.00,meteohub,2013-08-21 17:17:00,
2013-08-21 07:22:00,77.2,68.2,29.96,ENE,78,0.0,1.0,74,0.00,,,0.00,meteohub,2013-08-21 17:22:00,
2013-08-21 07:27:00,77.2,67.5,29.96,ENE,78,0.0,1.0,72,0.00,,,0.00,meteohub,2013-08-21 17:27:00,
2013-08-21 07:32:00,76.8,67.5,29.96,NNE,13,0.0,1.0,73,0.00,,,0.00,meteohub,2013-08-21 17:32:00,
2013-08-21 07:37:00,76.6,67.6,29.96,NNE,13,0.0,1.0,74,0.00,,,0.00,meteohub,2013-08-21 17:37:00,
2013-08-21 07:42:00,76.8,67.8,29.96,NW,308,0.0,1.0,74,0.00,,,0.00,meteohub,2013-08-21 17:42:00,
2013-08-21 07:47:00,77.0,68.0,29.97,NW,310,0.0,1.0,74,0.00,,,0.00,meteohub,2013-08-21 17:47:00,
2013-08-21 07:52:00,77.2,68.2,29.96,NW,309,0.0,1.0,74,0.00,,,0.00,meteohub,2013-08-21 17:52:00,
2013-08-21 07:57:00,77.5,68.2,29.97,WNW,287,1.0,1.0,73,0.00,,,0.00,meteohub,2013-08-21 17:57:00,
2013-08-21 08:02:00,77.5,68.2,29.97,NW,319,0.0,2.0,73,0.00,,,0.00,meteohub,2013-08-21 18:02:00,
2013-08-21 08:07:00,78.1,68.7,29.97,NW,319,0.0,2.0,73,0.00,,,0.00,meteohub,2013-08-21 18:07:00,
2013-08-21 08:12:00,79.2,69.3,29.97,NW,319,0.0,2.0,72,0.00,,,0.00,meteohub,2013-08-21 18:12:00,
2013-08-21 08:17:00,79.9,69.3,29.97,SSW,199,1.0,1.0,70,0.00,,,0.00,meteohub,2013-08-21 18:17:00,
2013-08-21 08:22:00,80.1,69.4,29.97,SE,131,0.0,2.0,70,0.00,,,0.00,meteohub,2013-08-21 18:22:00,
2013-08-21 08:27:00,80.8,69.6,29.97,South,180,2.0,2.0,69,0.00,,,0.00,meteohub,2013-08-21 18:27:00,
2013-08-21 08:32:00,80.2,68.7,29.97,WSW,238,0.0,2.0,68,0.00,,,0.00,meteohub,2013-08-21 18:32:00,
2013-08-21 08:37:00,80.4,69.3,29.97,WSW,240,0.0,2.0,69,0.00,,,0.00,meteohub,2013-08-21 18:37:00,
2013-08-21 08:42:00,79.9,69.3,29.97,West,259,1.0,4.0,70,0.00,,,0.00,meteohub,2013-08-21 18:42:00,
2013-08-21 08:47:00,79.5,69.6,29.97,WNW,285,3.0,4.0,72,0.00,,,0.00,meteohub,2013-08-21 18:47:00,
2013-08-21 08:52:00,79.2,69.3,29.97,WNW,284,2.0,5.0,72,0.00,,,0.00,meteohub,2013-08-21 18:52:00,
2013-08-21 08:57:00,79.0,69.3,29.97,WNW,300,3.0,6.0,72,0.00,,,0.00,meteohub,2013-08-21 18:57:00,
2013-08-21 09:02:00,78.6,69.3,29.97,WNW,303,5.0,6.0,73,0.00,,,0.00,meteohub,2013-08-21 19:02:00,
2013-08-21 09:07:00,78.4,68.7,29.98,WSW,249,2.0,6.0,72,0.00,,,0.00,meteohub,2013-08-21 19:07:00,
2013-08-21 09:12:00,78.6,68.9,29.98,WNW,297,3.0,6.0,72,0.00,,,0.00,meteohub,2013-08-21 19:12:00,
2013-08-21 09:17:00,78.6,68.9,29.98,WNW,290,1.0,6.0,72,0.00,,,0.00,meteohub,2013-08-21 19:17:00,
2013-08-21 09:22:00,78.8,69.1,29.98,WNW,284,5.0,5.0,72,0.00,,,0.00,meteohub,2013-08-21 19:22:00,
2013-08-21 09:27:00,79.0,69.3,29.98,NW,308,3.0,6.0,72,0.00,,,0.00,meteohub,2013-08-21 19:27:00,
2013-08-21 09:32:00,79.2,68.9,29.98,NW,308,4.0,6.0,71,0.00,,,0.00,meteohub,2013-08-21 19:32:00,
2013-08-21 09:37:00,79.2,68.9,29.98,WNW,302,3.0,6.0,71,0.00,,,0.00,meteohub,2013-08-21 19:37:00,
2013-08-21 09:42:00,79.5,68.9,29.97,WNW,295,5.0,6.0,70,0.00,,,0.00,meteohub,2013-08-21 19:42:00,
2013-08-21 09:47:00,79.5,68.9,29.97,WNW,297,5.0,6.0,70,0.00,,,0.00,meteohub,2013-08-21 19:47:00,
2013-08-21 09:52:00,79.9,68.7,29.97,West,263,5.0,6.0,69,0.00,,,0.00,meteohub,2013-08-21 19:52:00,
2013-08-21 09:57:00,80.2,69.6,29.97,WNW,290,3.0,6.0,70,0.00,,,0.00,meteohub,2013-08-21 19:57:00,
2013-08-21 10:02:00,80.1,68.9,29.97,West,269,2.0,6.0,69,0.00,,,0.00,meteohub,2013-08-21 20:02:00,
2013-08-21 10:07:00,79.9,68.7,29.97,WSW,256,4.0,7.0,69,0.00,,,0.00,meteohub,2013-08-21 20:07:00,
2013-08-21 10:12:00,79.7,69.4,29.97,West,281,5.0,7.0,71,0.00,,,0.00,meteohub,2013-08-21 20:12:00,
2013-08-21 10:17:00,79.5,69.3,29.97,WSW,253,4.0,7.0,71,0.00,,,0.00,meteohub,2013-08-21 20:17:00,
2013-08-21 10:22:00,79.3,69.4,29.97,SW,217,1.0,6.0,72,0.00,,,0.00,meteohub,2013-08-21 20:22:00,
2013-08-21 10:27:00,79.9,69.3,29.97,West,271,6.0,6.0,70,0.00,,,0.00,meteohub,2013-08-21 20:27:00,
2013-08-21 10:32:00,80.1,69.8,29.97,WNW,288,5.0,7.0,71,0.00,,,0.00,meteohub,2013-08-21 20:32:00,
2013-08-21 10:37:00,80.1,69.8,29.97,West,275,6.0,7.0,71,0.00,,,0.00,meteohub,2013-08-21 20:37:00,
2013-08-21 10:42:00,79.9,69.6,29.97,WNW,288,3.0,7.0,71,0.00,,,0.00,meteohub,2013-08-21 20:42:00,
2013-08-21 10:47:00,79.7,69.8,29.97,NNW,327,0.0,7.0,72,0.00,,,0.00,meteohub,2013-08-21 20:47:00,
2013-08-21 10:52:00,79.9,70.0,29.97,West,259,3.0,7.0,72,0.00,,,0.00,meteohub,2013-08-21 20:52:00,
2013-08-21 10:57:00,79.9,70.5,29.97,West,271,3.0,7.0,73,0.00,,,0.00,meteohub,2013-08-21 20:57:00,
2013-08-21 11:02:00,79.9,70.5,29.96,WNW,295,7.0,7.0,73,0.00,,,0.00,meteohub,2013-08-21 21:02:00,
2013-08-21 11:07:00,80.1,70.7,29.96,WSW,256,4.0,8.0,73,0.00,,,0.00,meteohub,2013-08-21 21:07:00,
2013-08-21 11:12:00,80.1,70.7,29.96,West,274,3.0,8.0,73,0.00,,,0.00,meteohub,2013-08-21 21:12:00,
2013-08-21 11:17:00,79.9,70.5,29.96,West,265,5.0,9.0,73,0.00,,,0.00,meteohub,2013-08-21 21:17:00,
2013-08-21 11:22:00,79.9,70.9,29.96,West,280,4.0,9.0,74,0.00,,,0.00,meteohub,2013-08-21 21:22:00,
2013-08-21 11:27:00,80.1,70.7,29.96,WNW,285,5.0,9.0,73,0.00,,,0.00,meteohub,2013-08-21 21:27:00,
2013-08-21 11:32:00,80.2,71.2,29.96,WNW,290,2.0,8.0,74,0.00,,,0.00,meteohub,2013-08-21 21:32:00,
2013-08-21 11:37:00,80.1,70.2,29.96,WNW,287,5.0,7.0,72,0.00,,,0.00,meteohub,2013-08-21 21:37:00,
2013-08-21 11:42:00,80.4,71.4,29.95,SW,217,4.0,7.0,74,0.00,,,0.00,meteohub,2013-08-21 21:42:00,
2013-08-21 11:47:00,80.6,70.3,29.95,WNW,283,5.0,7.0,71,0.00,,,0.00,meteohub,2013-08-21 21:47:00,
2013-08-21 11:52:00,80.6,71.1,29.95,West,276,5.0,10.0,73,0.00,,,0.00,meteohub,2013-08-21 21:52:00,
2013-08-21 11:57:00,80.6,70.3,29.95,West,262,6.0,10.0,71,0.00,,,0.00,meteohub,2013-08-21 21:57:00,
2013-08-21 12:02:00,80.6,71.1,29.95,WSW,256,7.0,10.0,73,0.00,,,0.00,meteohub,2013-08-21 22:02:00,
2013-08-21 12:07:00,80.4,70.5,29.95,West,281,1.0,10.0,72,0.00,,,0.00,meteohub,2013-08-21 22:07:00,
2013-08-21 12:12:00,80.8,71.2,29.94,West,271,3.0,10.0,73,0.00,,,0.00,meteohub,2013-08-21 22:12:00,
2013-08-21 12:17:00,80.8,70.5,29.94,WNW,285,6.0,9.0,71,0.00,,,0.00,meteohub,2013-08-21 22:17:00,
2013-08-21 12:22:00,81.0,72.0,29.94,West,271,7.0,9.0,74,0.00,,,0.00,meteohub,2013-08-21 22:22:00,
2013-08-21 12:27:00,81.0,70.7,29.94,NW,319,6.0,9.0,71,0.00,,,0.00,meteohub,2013-08-21 22:27:00,
2013-08-21 12:32:00,81.0,70.7,29.94,WNW,293,7.0,9.0,71,0.00,,,0.00,meteohub,2013-08-21 22:32:00,
2013-08-21 12:37:00,80.8,70.5,29.94,NW,311,4.0,9.0,71,0.00,,,0.00,meteohub,2013-08-21 22:37:00,
2013-08-21 12:42:00,81.1,70.3,29.94,NW,309,6.0,9.0,70,0.00,,,0.00,meteohub,2013-08-21 22:42:00,
2013-08-21 12:47:00,81.1,70.3,29.93,WSW,252,4.0,9.0,70,0.00,,,0.00,meteohub,2013-08-21 22:47:00,
2013-08-21 12:52:00,81.1,70.3,29.93,NW,305,5.0,9.0,70,0.00,,,0.00,meteohub,2013-08-21 22:52:00,
2013-08-21 12:57:00,81.3,71.1,29.93,WNW,298,5.0,9.0,71,0.00,,,0.00,meteohub,2013-08-21 22:57:00,
2013-08-21 13:02:00,81.9,70.7,29.93,NW,315,6.0,8.0,69,0.00,,,0.00,meteohub,2013-08-21 23:02:00,
2013-08-21 13:07:00,82.0,70.0,29.93,WNW,287,7.0,9.0,67,0.00,,,0.00,meteohub,2013-08-21 23:07:00,
2013-08-21 13:12:00,82.0,69.1,29.93,West,277,7.0,9.0,65,0.00,,,0.00,meteohub,2013-08-21 23:12:00,
2013-08-21 13:17:00,82.0,70.0,29.93,West,264,5.0,9.0,67,0.00,,,0.00,meteohub,2013-08-21 23:17:00,
2013-08-21 13:22:00,81.9,70.3,29.93,West,266,5.0,8.0,68,0.00,,,0.00,meteohub,2013-08-21 23:22:00,
2013-08-21 13:27:00,81.7,70.2,29.93,West,274,6.0,9.0,68,0.00,,,0.00,meteohub,2013-08-21 23:27:00,
2013-08-21 13:32:00,81.3,70.2,29.92,West,267,4.0,9.0,69,0.00,,,0.00,meteohub,2013-08-21 23:32:00,
2013-08-21 13:37:00,81.9,70.7,29.92,West,274,2.0,9.0,69,0.00,,,0.00,meteohub,2013-08-21 23:37:00,
2013-08-21 13:42:00,82.2,72.0,29.92,West,274,5.0,8.0,71,0.00,,,0.00,meteohub,2013-08-21 23:42:00,
2013-08-21 13:47:00,82.8,71.1,29.92,West,267,2.0,8.0,68,0.00,,,0.00,meteohub,2013-08-21 23:47:00,
2013-08-21 13:52:00,82.4,71.2,29.92,WNW,284,3.0,9.0,69,0.00,,,0.00,meteohub,2013-08-21 23:52:00,
2013-08-21 13:57:00,82.6,70.9,29.92,West,276,8.0,9.0,68,0.00,,,0.00,meteohub,2013-08-21 23:57:00,
2013-08-21 14:02:00,82.4,70.7,29.91,West,281,5.0,9.0,68,0.00,,,0.00,meteohub,2013-08-22 00:02:00,
2013-08-21 14:07:00,82.6,71.4,29.91,WNW,300,6.0,8.0,69,0.00,,,0.00,meteohub,2013-08-22 00:07:00,
2013-08-21 14:12:00,82.6,70.5,29.91,NW,307,5.0,9.0,67,0.00,,,0.00,meteohub,2013-08-22 00:12:00,
2013-08-21 14:17:00,82.6,69.1,29.91,West,270,7.0,9.0,64,0.00,,,0.00,meteohub,2013-08-22 00:17:00,
2013-08-21 14:22:00,82.8,70.7,29.91,West,262,8.0,9.0,67,0.00,,,0.00,meteohub,2013-08-22 00:22:00,
2013-08-21 14:27:00,83.1,71.4,29.91,WNW,291,5.0,9.0,68,0.00,,,0.00,meteohub,2013-08-22 00:27:00,
2013-08-21 14:32:00,82.8,70.7,29.91,WSW,243,7.0,9.0,67,0.00,,,0.00,meteohub,2013-08-22 00:32:00,
2013-08-21 14:37:00,83.3,71.2,29.91,WNW,288,6.0,9.0,67,0.00,,,0.00,meteohub,2013-08-22 00:37:00,
2013-08-21 14:42:00,83.1,72.0,29.91,WNW,301,6.0,9.0,69,0.00,,,0.00,meteohub,2013-08-22 00:42:00,
2013-08-21 14:47:00,83.1,70.5,29.90,West,274,5.0,10.0,66,0.00,,,0.00,meteohub,2013-08-22 00:47:00,
2013-08-21 14:52:00,83.1,71.4,29.90,WSW,255,5.0,10.0,68,0.00,,,0.00,meteohub,2013-08-22 00:52:00,
2013-08-21 14:57:00,83.5,71.4,29.90,West,266,6.0,10.0,67,0.00,,,0.00,meteohub,2013-08-22 00:57:00,
2013-08-21 15:02:00,83.7,70.2,29.90,WNW,300,4.0,9.0,64,0.00,,,0.00,meteohub,2013-08-22 01:02:00,
2013-08-21 15:07:00,83.5,68.2,29.90,WNW,293,6.0,9.0,60,0.00,,,0.00,meteohub,2013-08-22 01:07:00,
2013-08-21 15:12:00,83.7,67.8,29.90,West,281,6.0,9.0,59,0.00,,,0.00,meteohub,2013-08-22 01:12:00,
2013-08-21 15:17:00,84.0,68.7,29.89,WSW,257,6.0,9.0,60,0.00,,,0.00,meteohub,2013-08-22 01:17:00,
2013-08-21 15:22:00,84.4,68.0,29.89,WNW,285,6.0,9.0,58,0.00,,,0.00,meteohub,2013-08-22 01:22:00,
2013-08-21 15:27:00,84.4,67.5,29.89,WNW,290,4.0,9.0,57,0.00,,,0.00,meteohub,2013-08-22 01:27:00,
2013-08-21 15:32:00,84.4,68.5,29.89,WNW,291,4.0,7.0,59,0.00,,,0.00,meteohub,2013-08-22 01:32:00,
2013-08-21 15:37:00,84.6,69.1,29.89,NW,321,3.0,9.0,60,0.00,,,0.00,meteohub,2013-08-22 01:37:00,
2013-08-21 15:42:00,84.6,69.1,29.89,WNW,300,8.0,9.0,60,0.00,,,0.00,meteohub,2013-08-22 01:42:00,
2013-08-21 15:47:00,84.0,69.6,29.89,WNW,297,4.0,9.0,62,0.00,,,0.00,meteohub,2013-08-22 01:47:00,
2013-08-21 15:52:00,84.2,70.2,29.89,West,271,5.0,9.0,63,0.00,,,0.00,meteohub,2013-08-22 01:52:00,
2013-08-21 15:57:00,84.0,70.0,29.89,WNW,301,8.0,9.0,63,0.00,,,0.00,meteohub,2013-08-22 01:57:00,
2013-08-21 16:02:00,83.7,71.1,29.89,WNW,300,8.0,9.0,66,0.00,,,0.00,meteohub,2013-08-22 02:02:00,
2013-08-21 16:07:00,84.0,70.5,29.89,WNW,287,6.0,9.0,64,0.00,,,0.00,meteohub,2013-08-22 02:07:00,
2013-08-21 16:12:00,84.0,71.4,29.89,NW,305,7.0,9.0,66,0.00,,,0.00,meteohub,2013-08-22 02:12:00,
2013-08-21 16:17:00,83.8,70.9,29.89,NW,323,7.0,10.0,65,0.00,,,0.00,meteohub,2013-08-22 02:17:00,
2013-08-21 16:22:00,83.8,71.2,29.89,West,281,6.0,10.0,66,0.00,,,0.00,meteohub,2013-08-22 02:22:00,
2013-08-21 16:27:00,83.8,72.1,29.89,WNW,290,8.0,12.0,68,0.00,,,0.00,meteohub,2013-08-22 02:27:00,
2013-08-21 16:32:00,83.3,71.6,29.89,NW,307,6.0,12.0,68,0.00,,,0.00,meteohub,2013-08-22 02:32:00,
2013-08-21 16:37:00,83.1,72.3,29.89,WNW,285,9.0,15.0,70,0.00,,,0.00,meteohub,2013-08-22 02:37:00,
2013-08-21 16:42:00,83.3,72.1,29.89,NW,321,7.0,15.0,69,0.00,,,0.00,meteohub,2013-08-22 02:42:00,
2013-08-21 16:47:00,83.5,71.4,29.89,NNW,334,9.0,13.0,67,0.00,,,0.00,meteohub,2013-08-22 02:47:00,
2013-08-21 16:52:00,83.5,72.3,29.89,NW,305,10.0,14.0,69,0.00,,,0.00,meteohub,2013-08-22 02:52:00,
2013-08-21 16:57:00,83.3,72.1,29.89,WNW,302,7.0,14.0,69,0.00,,,0.00,meteohub,2013-08-22 02:57:00,
2013-08-21 17:02:00,83.3,71.6,29.89,NNW,327,8.0,13.0,68,0.00,,,0.00,meteohub,2013-08-22 03:02:00,
2013-08-21 17:07:00,83.1,71.4,29.89,WNW,293,13.0,13.0,68,0.00,,,0.00,meteohub,2013-08-22 03:07:00,
2013-08-21 17:12:00,82.9,71.8,29.89,NNW,338,10.0,14.0,69,0.00,,,0.00,meteohub,2013-08-22 03:12:00,
2013-08-21 17:17:00,82.6,72.1,29.90,NNW,327,10.0,14.0,71,0.00,,,0.00,meteohub,2013-08-22 03:17:00,
2013-08-21 17:22:00,82.8,72.0,29.90,NW,311,12.0,14.0,70,0.00,,,0.00,meteohub,2013-08-22 03:22:00,
2013-08-21 17:27:00,82.9,72.1,29.90,WNW,298,9.0,13.0,70,0.00,,,0.00,meteohub,2013-08-22 03:27:00,
2013-08-21 17:32:00,82.8,72.0,29.90,WNW,294,8.0,13.0,70,0.00,,,0.00,meteohub,2013-08-22 03:32:00,
2013-08-21 17:37:00,82.6,71.4,29.90,NNW,335,8.0,15.0,69,0.00,,,0.00,meteohub,2013-08-22 03:37:00,
2013-08-21 17:42:00,82.2,71.4,29.90,WNW,301,9.0,15.0,70,0.00,,,0.00,meteohub,2013-08-22 03:42:00,
2013-08-21 17:47:00,82.2,71.1,29.90,WNW,302,7.0,15.0,69,0.00,,,0.00,meteohub,2013-08-22 03:47:00,
2013-08-21 17:52:00,82.0,71.2,29.90,NW,316,8.0,15.0,70,0.00,,,0.00,meteohub,2013-08-22 03:52:00,
2013-08-21 17:57:00,82.0,71.8,29.91,NW,304,11.0,13.0,71,0.00,,,0.00,meteohub,2013-08-22 03:57:00,
2013-08-21 18:01:00,81.9,71.6,29.91,NW,310,10.0,12.0,71,0.00,,,0.00,meteohub,2013-08-22 04:01:00,
2013-08-21 18:03:00,81.9,72.0,29.91,WNW,293,6.0,12.0,72,0.00,,,0.00,meteohub,2013-08-22 04:03:00,
2013-08-21 18:04:00,81.7,71.4,29.91,NW,307,4.0,12.0,71,0.00,,,0.00,meteohub,2013-08-22 04:04:00,
2013-08-21 18:06:00,81.7,71.8,29.91,NW,319,5.0,13.0,72,0.00,,,0.00,meteohub,2013-08-22 04:06:00,
2013-08-21 18:11:00,81.5,71.2,29.91,NW,321,9.0,13.0,71,0.00,,,0.00,meteohub,2013-08-22 04:11:00,
2013-08-21 18:16:00,81.1,71.2,29.91,WNW,298,8.0,13.0,72,0.00,,,0.00,meteohub,2013-08-22 04:16:00,
2013-08-21 18:21:00,80.6,71.6,29.91,WNW,296,4.0,13.0,74,0.00,,,0.00,meteohub,2013-08-22 04:21:00,
2013-08-21 18:26:00,80.2,71.2,29.91,NW,305,4.0,13.0,74,0.00,,,0.00,meteohub,2013-08-22 04:26:00,
2013-08-21 18:31:00,79.9,71.2,29.91,NW,314,4.0,13.0,75,0.00,,,0.00,meteohub,2013-08-22 04:31:00,
2013-08-21 18:36:00,79.9,71.2,29.92,NNW,340,4.0,10.0,75,0.00,,,0.00,meteohub,2013-08-22 04:36:00,
2013-08-21 18:41:00,79.9,71.2,29.92,NW,304,5.0,10.0,75,0.00,,,0.00,meteohub,2013-08-22 04:41:00,
2013-08-21 18:46:00,79.5,70.5,29.92,NW,310,3.0,10.0,74,0.00,,,0.00,meteohub,2013-08-22 04:46:00,
2013-08-21 18:51:00,79.5,70.9,29.92,NW,315,6.0,9.0,75,0.00,,,0.00,meteohub,2013-08-22 04:51:00,
2013-08-21 18:56:00,79.3,70.7,29.92,NNW,336,5.0,10.0,75,0.00,,,0.00,meteohub,2013-08-22 04:56:00,
2013-08-21 19:01:00,79.2,70.9,29.92,NNW,341,4.0,10.0,76,0.00,,,0.00,meteohub,2013-08-22 05:01:00,
2013-08-21 19:06:00,79.0,70.7,29.93,WNW,300,4.0,10.0,76,0.00,,,0.00,meteohub,2013-08-22 05:06:00,
2013-08-21 19:11:00,79.0,71.1,29.93,NW,322,0.0,10.0,77,0.00,,,0.00,meteohub,2013-08-22 05:11:00,
2013-08-21 19:16:00,79.0,71.1,29.93,NNE,33,1.0,10.0,77,0.00,,,0.00,meteohub,2013-08-22 05:16:00,
2013-08-21 19:21:00,78.8,71.1,29.93,NW,314,4.0,7.0,77,0.00,,,0.00,meteohub,2013-08-22 05:21:00,
2013-08-21 19:26:00,78.6,70.9,29.93,NNW,333,1.0,7.0,77,0.00,,,0.00,meteohub,2013-08-22 05:26:00,
2013-08-21 19:31:00,78.6,70.9,29.93,NNE,19,2.0,7.0,77,0.00,,,0.00,meteohub,2013-08-22 05:31:00,
2013-08-21 19:37:00,78.4,70.7,29.94,NW,305,0.0,7.0,77,0.00,,,0.00,meteohub,2013-08-22 05:37:00,
2013-08-21 19:42:00,78.4,70.7,29.94,NW,316,3.0,6.0,77,0.00,,,0.00,meteohub,2013-08-22 05:42:00,
2013-08-21 19:47:00,78.3,70.5,29.94,NNE,18,1.0,6.0,77,0.00,,,0.00,meteohub,2013-08-22 05:47:00,
2013-08-21 19:52:00,78.3,70.9,29.94,North,1,1.0,4.0,78,0.00,,,0.00,meteohub,2013-08-22 05:52:00,
2013-08-21 19:57:00,78.1,71.1,29.94,NW,317,0.0,4.0,79,0.00,,,0.00,meteohub,2013-08-22 05:57:00,
2013-08-21 20:02:00,78.1,71.1,29.94,NW,318,0.0,3.0,79,0.00,,,0.00,meteohub,2013-08-22 06:02:00,
2013-08-21 20:07:00,77.9,71.2,29.94,North,7,0.0,2.0,80,0.00,,,0.00,meteohub,2013-08-22 06:07:00,
2013-08-21 20:12:00,77.7,71.1,29.94,North,4,0.0,3.0,80,0.00,,,0.00,meteohub,2013-08-22 06:12:00,
2013-08-21 20:17:00,77.5,70.9,29.94,NNW,333,1.0,3.0,80,0.00,,,0.00,meteohub,2013-08-22 06:17:00,
2013-08-21 20:22:00,77.5,70.9,29.94,NNE,23,0.0,2.0,80,0.00,,,0.00,meteohub,2013-08-22 06:22:00,
2013-08-21 20:28:00,77.4,70.7,29.95,NE,34,1.0,2.0,80,0.00,,,0.00,meteohub,2013-08-22 06:28:00,
2013-08-21 20:33:00,77.4,70.7,29.95,NE,34,0.0,2.0,80,0.00,,,0.00,meteohub,2013-08-22 06:33:00,
2013-08-21 20:38:00,77.4,70.7,29.95,NE,50,0.0,2.0,80,0.00,,,0.00,meteohub,2013-08-22 06:38:00,
2013-08-21 20:43:00,77.4,70.7,29.95,North,349,0.0,3.0,80,0.00,,,0.00,meteohub,2013-08-22 06:43:00,
2013-08-21 20:48:00,77.2,70.5,29.96,North,349,0.0,3.0,80,0.00,,,0.00,meteohub,2013-08-22 06:48:00,
2013-08-21 20:53:00,77.2,70.5,29.96,NNE,27,0.0,3.0,80,0.00,,,0.00,meteohub,2013-08-22 06:53:00,
2013-08-21 20:58:00,77.2,70.9,29.96,NNE,28,0.0,1.0,81,0.00,,,0.00,meteohub,2013-08-22 06:58:00,
2013-08-21 21:03:00,77.2,70.9,29.96,NE,43,0.0,3.0,81,0.00,,,0.00,meteohub,2013-08-22 07:03:00,
2013-08-21 21:09:00,76.6,69.6,29.96,ENE,67,0.0,3.0,79,0.00,,,0.00,meteohub,2013-08-22 07:09:00,
2013-08-21 21:14:00,76.3,69.3,29.96,ENE,66,0.0,3.0,79,0.00,,,0.00,meteohub,2013-08-22 07:14:00,
2013-08-21 21:19:00,76.1,68.7,29.96,ESE,104,2.0,3.0,78,0.00,,,0.00,meteohub,2013-08-22 07:19:00,
2013-08-21 21:24:00,75.9,68.2,29.96,East,96,1.0,4.0,77,0.00,,,0.00,meteohub,2013-08-22 07:24:00,
2013-08-21 21:29:00,75.9,67.8,29.96,ENE,73,2.0,4.0,76,0.00,,,0.00,meteohub,2013-08-22 07:29:00,
2013-08-21 21:34:00,75.9,67.8,29.96,East,87,0.0,4.0,76,0.00,,,0.00,meteohub,2013-08-22 07:34:00,
2013-08-21 21:39:00,76.1,67.6,29.96,ENE,67,1.0,3.0,75,0.00,,,0.00,meteohub,2013-08-22 07:39:00,
2013-08-21 21:44:00,76.1,67.6,29.97,East,80,1.0,4.0,75,0.00,,,0.00,meteohub,2013-08-22 07:44:00,
2013-08-21 21:50:00,76.1,67.6,29.97,ENE,68,0.0,4.0,75,0.00,,,0.00,meteohub,2013-08-22 07:50:00,
2013-08-21 21:55:00,76.3,68.2,29.97,ENE,70,1.0,4.0,76,0.00,,,0.00,meteohub,2013-08-22 07:55:00,
2013-08-21 22:00:00,76.1,68.0,29.97,East,83,2.0,3.0,76,0.00,,,0.00,meteohub,2013-08-22 08:00:00,
2013-08-21 22:05:00,75.9,67.5,29.97,East,80,1.0,4.0,75,0.00,,,0.00,meteohub,2013-08-22 08:05:00,
2013-08-21 22:10:00,75.9,67.5,29.97,East,84,0.0,4.0,75,0.00,,,0.00,meteohub,2013-08-22 08:10:00,
2013-08-21 22:15:00,75.9,67.5,29.97,ENE,68,2.0,4.0,75,0.00,,,0.00,meteohub,2013-08-22 08:15:00,
2013-08-21 22:20:00,75.9,67.5,29.96,ENE,68,0.0,3.0,75,0.00,,,0.00,meteohub,2013-08-22 08:20:00,
2013-08-21 22:25:00,75.7,67.3,29.97,ENE,75,1.0,2.0,75,0.00,,,0.00,meteohub,2013-08-22 08:25:00,
2013-08-21 22:30:00,75.7,67.3,29.97,ENE,68,1.0,2.0,75,0.00,,,0.00,meteohub,2013-08-22 08:30:00,
2013-08-21 22:35:00,75.7,67.3,29.97,East,84,0.0,1.0,75,0.00,,,0.00,meteohub,2013-08-22 08:35:00,
2013-08-21 22:41:00,75.6,67.1,29.97,East,83,4.0,4.0,75,0.00,,,0.00,meteohub,2013-08-22 08:41:00,
2013-08-21 22:46:00,75.4,66.6,29.97,East,93,3.0,4.0,74,0.00,,,0.00,meteohub,2013-08-22 08:46:00,
2013-08-21 22:51:00,75.6,66.7,29.97,East,96,2.0,6.0,74,0.00,,,0.00,meteohub,2013-08-22 08:51:00,
2013-08-21 22:56:00,75.6,66.7,29.97,East,83,1.0,6.0,74,0.00,,,0.00,meteohub,2013-08-22 08:56:00,
2013-08-21 23:01:00,75.6,66.7,29.97,East,99,1.0,5.0,74,0.00,,,0.00,meteohub,2013-08-22 09:01:00,
2013-08-21 23:06:00,75.6,66.7,29.97,East,82,1.0,4.0,74,0.00,,,0.00,meteohub,2013-08-22 09:06:00,
2013-08-21 23:11:00,75.6,66.7,29.97,East,81,1.0,4.0,74,0.00,,,0.00,meteohub,2013-08-22 09:11:00,
2013-08-21 23:16:00,75.6,67.1,29.97,ENE,71,1.0,4.0,75,0.00,,,0.00,meteohub,2013-08-22 09:16:00,
2013-08-21 23:21:00,75.6,67.1,29.96,East,79,2.0,3.0,75,0.00,,,0.00,meteohub,2013-08-22 09:21:00,
2013-08-21 23:26:00,75.4,66.9,29.96,NE,54,1.0,3.0,75,0.00,,,0.00,meteohub,2013-08-22 09:26:00,
2013-08-21 23:31:00,75.6,67.5,29.96,ENE,57,1.0,2.0,76,0.00,,,0.00,meteohub,2013-08-22 09:31:00,
2013-08-21 23:36:00,75.6,67.5,29.96,NE,50,1.0,4.0,76,0.00,,,0.00,meteohub,2013-08-22 09:36:00,
2013-08-21 23:41:00,75.4,66.9,29.96,ENE,57,1.0,4.0,75,0.00,,,0.00,meteohub,2013-08-22 09:41:00,
2013-08-21 23:46:00,75.4,66.9,29.96,NE,46,0.0,3.0,75,0.00,,,0.00,meteohub,2013-08-22 09:46:00,
2013-08-21 23:52:00,75.2,67.1,29.96,ENE,72,1.0,4.0,76,0.00,,,0.00,meteohub,2013-08-22 09:52:00,
2013-08-21 23:57:00,75.2,67.5,29.96,NE,50,2.0,4.0,77,0.00,,,0.00,meteohub,2013-08-22 09:57:00,